Khartoum, Sudan

1:22 AM CAT on November 21, 2017 (GMT +0200)
Khartoum

Weather History for HSSS - March, 2013

Change the Weather History Date:

Monday, March 4, 2013

  Actual Average Record
Temperature  
Mean Temperature 88 °F -  
Max Temperature 102 °F 91 °F 105 °F (2004)
Min Temperature 74 °F 75 °F 59 °F (2012)
Cooling Degree Days 23    
Growing Degree Days 38 (Base 50)    
Moisture  
Dew Point 27 °F    
Average Humidity 11    
Maximum Humidity 25    
Minimum Humidity 4    
Precipitation  
Precipitation 0.00 in 0.00 in - ()
Sea Level Pressure  
Sea Level Pressure 29.82 in    
Wind  
Wind Speed 10 mph ()    
Max Wind Speed 21 mph    
Max Gust Speed -    
Visibility 6.3 miles    
Events      
Averages and records for this station are not official NWS values.
T = Trace of Precipitation, MM = Missing Value Source: Averaged Metar Reports

Daily Weather History Graph

Daily Weather History Graph

Search for Another Location

Airport or City:

Trip Planner

Search our weather history database for the weather conditions in past years. The results will help you decide how hot, cold, wet, or windy it might be!

Date:

Astronomy

Mar. 04, 2013 Rise Set
Actual Time 7:05 AM EAT 6:57 PM EAT
Civil Twilight 6:43 AM EAT 7:19 PM EAT
Nautical Twilight 6:18 AM EAT 7:44 PM EAT
Astronomical Twilight 5:53 AM EAT 8:09 PM EAT
Moon 12:17 AM EAT (3/4) 11:58 AM EAT (3/4)
Length of Visible Light 12h 35m
Length of Day
11h 52m
Waning Gibbous, 56% of the Moon is Illuminated
Mar 4
Waning Gibbous
Mar 5
Last Quarter
Mar 11
New
Mar 19
First Quarter
Mar 27
Full

Hourly Weather History & Observations

Time (EAT) Temp. Dew Point Humidity Pressure Visibility Wind Dir Wind Speed Gust Speed Precip Events Conditions
12:00 AM 84.2 °F 24.8 °F 11% 29.83 in - North 8.1 mph - N/A   Clear
12:30 AM - - N/A% 29.83 in - North 5.8 mph - N/A   Clear
1:00 AM 82.4 °F 19.4 °F 10% 29.83 in - North 8.1 mph - N/A   Unknown
1:30 AM - - N/A% 29.83 in - North 10.4 mph - N/A   Unknown
2:00 AM 82.4 °F 19.4 °F 10% 29.83 in - North 9.2 mph - N/A   Clear
2:30 AM - - N/A% 29.83 in - North 9.2 mph - N/A   Clear
3:00 AM 81 °F 23 °F 5% 29.76 in 12 mi North 9.2 mph - -   Clear
3:00 AM 80.6 °F 23.0 °F 12% 29.80 in - North 9.2 mph - N/A   Clear
3:30 AM - - N/A% 29.80 in - North 9.2 mph - N/A   Clear
4:00 AM 80.6 °F 17.6 °F 10% 29.80 in - North 9.2 mph - N/A   Clear
4:30 AM - - N/A% 29.80 in - North 11.5 mph - N/A   Clear
5:00 AM - - N/A% 29.80 in - North 9.2 mph - N/A   Clear
5:30 AM - - N/A% 29.83 in - North 11.5 mph - N/A   Clear
6:00 AM 77.0 °F 23.0 °F 13% 29.83 in - North 9.2 mph - N/A   Clear
6:30 AM - - N/A% 29.86 in - North 10.4 mph - N/A   Clear
7:00 AM 75.2 °F 26.6 °F 17% 29.86 in - North 10.4 mph - N/A   Clear
7:30 AM - - N/A% 29.89 in - NNW 9.2 mph - N/A   Clear
8:00 AM 77.0 °F 30.2 °F 18% 29.89 in - NNW 11.5 mph - N/A   Clear
9:00 AM 79 °F 38 °F 14% 29.85 in 6 mi North 8.1 mph - -   Widespread Dust
9:00 AM 78.8 °F 39.2 °F 24% 29.92 in - North 8.1 mph - N/A   Clear
10:00 AM 84.2 °F 44.6 °F 25% 29.92 in - North 15.0 mph - N/A   Clear
10:30 AM 91.4 °F 44.6 °F 20% 29.89 in - North 16.1 mph - N/A   Clear
11:30 AM - - N/A% 29.89 in - North 17.3 mph - N/A   Clear
12:00 PM 95.0 °F 37.4 °F 13% 29.89 in - NNW 16.1 mph - N/A   Clear
1:00 PM 98.6 °F 23.0 °F 7% 29.86 in - NNE 16.1 mph - N/A   Clear
1:30 PM - - N/A% 29.83 in - NE 16.1 mph - N/A   Clear
2:00 PM 98.6 °F 23.0 °F 7% 29.83 in - NE 18.4 mph - N/A   Clear
2:30 PM - - N/A% 29.80 in - NE 17.3 mph - N/A   Clear
3:00 PM 100 °F 28 °F 4% 29.69 in 7 mi North 16.1 mph - -   Blowing Sand
3:00 PM 100.4 °F 28.4 °F 8% 29.80 in - North 16.1 mph - N/A   Clear
3:30 PM - - N/A% 29.77 in - NNE 17.3 mph - N/A   Clear
4:00 PM 96.8 °F 28.4 °F 9% 29.77 in - NNE 17.3 mph - N/A   Clear
4:30 PM - - N/A% 29.77 in 5.0 mi NNE 20.7 mph - N/A   Sand
5:00 PM 100.4 °F 23.0 °F 6% 29.77 in 3.7 mi NNE 20.7 mph - N/A   Sand
5:30 PM - - N/A% 29.77 in 3.7 mi NNE 20.7 mph - N/A   Sand
6:00 PM 98.6 °F 21.2 °F 6% 29.77 in 3.7 mi NNE 16.1 mph - N/A   Sand
6:30 PM - - N/A% 29.80 in 5.0 mi NNE 17.3 mph - N/A   Sand
7:00 PM 96.8 °F 26.6 °F 8% 29.80 in 5.0 mi NNE 15.0 mph - N/A   Sand
7:30 PM - - N/A% 29.80 in - NNE 9.2 mph - N/A   Clear
8:00 PM 93.2 °F 24.8 °F 9% 29.83 in - North 5.8 mph - N/A   Clear
8:30 PM - - N/A% 29.83 in - NNE 6.9 mph - N/A   Clear
9:00 PM 92 °F 27 °F 4% 29.74 in 12 mi North 5.8 mph - -   Clear
9:00 PM 91.4 °F 26.6 °F 10% 29.83 in - North 5.8 mph - N/A   Clear
9:30 PM - - N/A% 29.83 in - North 9.2 mph - N/A   Clear
10:00 PM 89.6 °F 21.2 °F 8% 29.83 in - North 6.9 mph - N/A   Clear
10:30 PM - - N/A% 29.83 in - North 6.9 mph - N/A   Clear
11:00 PM 87.8 °F 26.6 °F 11% 29.83 in - NNW 6.9 mph - N/A   Clear
11:30 PM - - N/A% 29.83 in - North 6.9 mph - N/A   Clear